Left ArrowRight Arrow

39.12711, -84.51439

Hourly Observations for June 13, 2024

Temp ( °F °C ) Dew Point ( °F °C ) Humidity (%) Winds ( mph kmh ) Pressure ( in mb ) Visibility ( mi km ) Precip ( " mm )
12:53 am 00:53 Clear 61 16.1 58 14.4 90 90 Calm 29.97 1015 10 16 0.00 0.00
1:53 am 01:53 Clear 60 15.6 58 14.4 93 93 Calm 29.98 1015 10 16 0.00 0.00
2:53 am 02:53 Clear 59 15 56 13.3 90 90 Calm 29.98 1015 10 16 0.00 0.00
3:53 am 03:53 Clear 57 13.9 55 12.8 93 93 Calm 29.98 1015 8 13 0.00 0.00
4:53 am 04:53 Clear 57 13.9 55 12.8 93 93 Calm 29.98 1015 7 11 0.00 0.00
5:38 am 05:38 Clear with Mist and Fog 57 13.9 56 13.3 96 96 Calm 29.99 1016 1 1 0.00 0.00
5:42 am 05:42 Clear with Mist and Fog 57 13.9 56 13.3 96 96 Calm 29.99 1016 3 5 0.00 0.00
5:53 am 05:53 Clear 57 13.9 55 12.8 93 93 Calm 29.98 1015 8 13 0.00 0.00
6:53 am 06:53 Sunny 57 13.9 55 12.8 93 93 Calm 30.00 1016 10 16 0.00 0.00
7:53 am 07:53 Sunny 62 16.7 59 15 90 90 Calm 30.00 1016 7 11 0.00 0.00
8:53 am 08:53 Sunny 68 20 61 16.1 78 78 Calm 30.01 1016 10 16 0.00 0.00
9:53 am 09:53 Sunny 75 23.9 62 16.7 64 64 SSW 3 6 30.01 1016 10 16 0.00 0.00
10:53 am 10:53 Sunny 79 26.1 61 16.1 54 54 SW 6 9 30.01 1016 10 16 0.00 0.00
11:53 am 11:53 Sunny 82 27.8 60 15.6 47 47 S 7 11 30.00 1016 10 16 0.00 0.00
12:53 pm 12:53 Sunny 84 28.9 60 15.6 45 45 SSW 8 13 29.97 1015 10 16 0.00 0.00
1:53 pm 13:53 Sunny 85 29.4 60 15.6 43 43 SSW 7 11 29.95 1014 10 16 0.00 0.00
2:53 pm 14:53 Sunny 86 30 61 16.1 43 43 S 8 13 29.95 1014 10 16 0.00 0.00
3:53 pm 15:53 Sunny 87 30.6 60 15.6 40 40 S 9 15 29.94 1014 10 16 0.00 0.00
4:53 pm 16:53 Sunny 87 30.6 61 16.1 42 42 S 9 15 29.92 1013 10 16 0.00 0.00
5:53 pm 17:53 Sunny 86 30 60 15.6 42 42 S 13 20 29.92 1013 10 16 0.00 0.00
6:53 pm 18:53 Sunny 84 28.9 60 15.6 45 45 SSW 12 19 29.89 1012 10 16 0.00 0.00
7:53 pm 19:53 Sunny 83 28.3 61 16.1 48 48 SSW 7 11 29.92 1013 10 16 0.00 0.00
8:53 pm 20:53 Sunny 76 24.4 61 16.1 60 60 S 5 7 29.91 1013 10 16 0.00 0.00
9:53 pm 21:53 Mostly Clear 71 21.7 62 16.7 73 73 Calm 29.92 1013 10 16 0.00 0.00
10:53 pm 22:53 Clear 70 21.1 61 16.1 73 73 Calm 29.92 1013 10 16 0.00 0.00
11:53 pm 23:53 Partly Cloudy 67 19.4 61 16.1 81 81 Calm 29.94 1014 10 16 0.00 0.00

Powered by Vaisala Xweather